Torna al catalogo

ATLAS 5 CENTAUR DEB

LostHEO
NORAD 46654·DEBRIS·🇺🇸 United States

Lanciato Sep 17, 2014 da Cape Canaveral Space Force Station

Loading…

Prossimi Passaggi (prossime 24 ore)

TLE

ObsoletoSource: Space-Track

Epoca: May 31, 2026, 23:38 UTC

1 46654U 14055DD  26151.98487863  .00000150  00000-0  00000-0 0  9994
2 46654  20.7676  82.0062 5156537 275.5750  30.3827  1.96050936 40473

Traccia ATLAS 5 CENTAUR DEB in tempo reale con AllMySat

Download on the App Store